Location: Beacon Field Observatory
(38.7700°N, 77.0829°W)
Time: 06:03:18
(UTC-05:00)

UKube-1 - Pass Details

Date: 15 December 2019
Orbit: 614 x 618 km, 98.5° (Epoch: 18 January)

Event Time Altitude Azimuth Distance (km) Brightness Sun altitude
Rises 17:29:46 0° 16° (NNE) 2,898 ? -8.2°
Reaches altitude 10° 17:31:59 10° 19° (NNE) 1,989 ? -8.6°
Maximum altitude 17:36:16 66° 102° (ESE) 675 ? -9.4°
Drops below altitude 10° 17:40:33 10° 185° (S) 1,975 ? -10.1°
Sets 17:42:44 0° 188° (S) 2,876 ? -10.5°
